This is the latest recevied weather packets stored in our database for station/object JR5YHL-13. If no packets are shown the sender has not sent any weather packets the latest 10 day(s).
| Time | Temp. | Humidity | Pressure | Rain* | Wind** | Luminosity | Snow |
|---|---|---|---|---|---|---|---|
| 1778128358 | 28.33° C | 53% | 1011.7 hPa | 0 mm | - | - | - |
| 1778127761 | 29.44° C | 49% | 1011.7 hPa | 0 mm | - | - | - |
| 1778127163 | 30° C | 47% | 1011.8 hPa | 0 mm | - | - | - |
| 1778126565 | 30° C | 47% | 1011.9 hPa | 0 mm | - | - | - |
| 1778125967 | 29.44° C | 47% | 1012.1 hPa | 0 mm | - | - | - |
| 1778125369 | 28.89° C | 48% | 1012.1 hPa | 0 mm | - | - | - |
| 1778124771 | 30° C | 45% | 1012.2 hPa | 0 mm | - | - | - |
| 1778124174 | 28.89° C | 48% | 1012.1 hPa | 0 mm | - | - | - |
| 1778123576 | 27.78° C | 49% | 1012.2 hPa | 0 mm | - | - | - |
| 1778122978 | 27.78° C | 48% | 1012.3 hPa | 0 mm | - | - | - |
| 1778122380 | 28.89° C | 45% | 1012.2 hPa | 0 mm | - | - | - |
| 1778121783 | 28.33° C | 47% | 1012.3 hPa | 0 mm | - | - | - |
| 1778121185 | 28.33° C | 46% | 1012.3 hPa | 0 mm | - | - | - |
| 1778120587 | 28.89° C | 45% | 1012.4 hPa | 0 mm | - | - | - |
| 1778119989 | 29.44° C | 47% | 1012.5 hPa | 0 mm | - | - | - |
| 1778119391 | 28.89° C | 47% | 1012.6 hPa | 0 mm | - | - | - |
| 1778118793 | 28.33° C | 48% | 1012.7 hPa | 0 mm | - | - | - |
| 1778118195 | 28.33° C | 48% | 1012.8 hPa | 0 mm | - | - | - |
| 1778117598 | 28.33° C | 48% | 1012.9 hPa | 0 mm | - | - | - |
| 1778117000 | 28.89° C | 47% | 1012.8 hPa | 0 mm | - | - | - |
| 1778116402 | 30° C | 45% | 1012.8 hPa | 0 mm | - | - | - |
| 1778115804 | 28.89° C | 47% | 1013 hPa | 0 mm | - | - | - |
| 1778115207 | 28.89° C | 46% | 1013 hPa | 0 mm | - | - | - |
| 1778114609 | 28.33° C | 48% | 1013.2 hPa | 0 mm | - | - | - |
| 1778114011 | 27.78° C | 44% | 1013.2 hPa | 0 mm | - | - | - |
* Rain latest hour (hover to see other rain measurements)
** Current wind speed in m/s (hover to see current wind gust speed)